Location: McFarlands Corners
(41.4117°N, 81.3382°W)
Time: 03:05:59
(UTC+00:00)

Tiros 1 - Pass Details

Date: 25 February 2026
Orbit: 618 x 649 km, 48.4° (Epoch: 7 March)

Event Time Altitude Azimuth Distance (km) Brightness Sun altitude
Rises 17:24:37 0° 295° (WNW) 2,901 10.3 39.6°
Reaches altitude 10° 17:27:02 10° 288° (WNW) 1,988 9.6 39.6°
Maximum altitude 17:31:18 41° 219° (SW) 904 9.1 39.7°
Drops below altitude 10° 17:35:33 10° 149° (SSE) 1,970 10.6 39.7°
Sets 17:37:56 0° 142° (SE) 2,872 11.1 39.7°
